www.pogodaiklimat.ru

ПОГОДА в Понка-Сити, OK

  • Прогноз погоды в Понка-Сити
  • Монитор погоды в Понка-Сити
  • Климат в Понка-Сити

АРХИВ ПОГОДЫ в Понка-Сити

Время (UTC), дата Ветер
(напр.,м/с)
 
Видим.   Явления Облачность Т
(С)
Тd
(С)
f
(%)
Тe
(С)
Тes
(С)
Комфортность

P
(гПа)

Po
(гПа)
Тmin
(С)
Tmax
(С)
R
(мм)
SD
(см)
17:53 23.03 Ю  7
{11} 
16 км    8/8 1290 м  +15.0  +8.3  64  +13  +14    1014.2  978.4         
18:53 23.03 ЮВ  16 км    10/10 1230 м  +16.1  +8.9  62  +15  +15    1013.7  977.7         
19:53 23.03 Ю  4
{8} 
16 км    10/10 960 м  +16.7  +9.4  62  +16  +16    1013.5  977.4         
20:53 23.03 ЮВ  16 км    10/10 930 м  +17.8  +10.0  60  +18  +18    1013.1  977.1         
21:53 23.03 В  16 км    8/8 1140 м  +16.1  +10.0  67  +15  +15    1012.8  976.7         
22:53 23.03 В  7
{10} 
16 км    8/8 1080 м  +14.4  +10.0  75  +12  +12    1013.6  977.4  +12.2  +18.3     
23:53 23.03 В  16 км    5/2 420 м
[средняя] 
+13.9  +10.6  80  +11  +11    1013.6  977.4         
00:30 24.03 ЮВ  8
{11} 
16 км    8/8 300 м
[средняя] 
+12.8  +10.6  86  +10  +10      977.7         
00:44 24.03 ЮВ  16 км    10/10 270 м  +12.8  +10.6  86  +10  +10      977.7         
00:53 24.03 ЮВ  14 км    10/10 240 м  +12.8  +10.6  86  +10  +10    1014.0  977.7         
01:53 24.03 ЮВ  16 км    10/10 240 м  +12.2  +10.0  86  +9  +9    1014.8  978.7         
02:15 24.03 ЮВ  16 км    10/10 300 м  +12.2  +9.4  83  +9  +9      978.7         
02:53 24.03 ЮВ  16 км    10/10 330 м  +12.2  +9.4  83  +9  +9    1015.0  978.7         
03:48 24.03 ЮВ  16 км    10/10 270 м  +12.0  +9.0  82  +9  +9      978.0         
03:53 24.03 ЮВ  16 км    10/10 270 м  +11.7  +8.9  83  +9  +9    1014.2  978.0         
04:53 24.03 Ю  16 км    10/10 210 м  +11.7  +9.4  86  +10  +10    1014.4  978.0  +11.1  +14.4     
05:53 24.03 ЮВ  14 км    10/10 180 м  +11.7  +9.4  86  +9  +9    1013.8  977.7         
06:53 24.03 ЮВ  13 км    10/10 180 м  +11.7  +10.0  89  +10  +10    1013.6  977.7         
07:43 24.03 ЮВ  5 км  дымка  10/10 120 м  +11.7  +10.0  89  +10  +10      977.4         
07:53 24.03 Ю  5 км  дымка  10/10 90 м  +11.7  +10.6  93  +10  +10    1013.4  977.4         
08:08 24.03 СЗ  3 км  дымка  10/10 60 м  +11.7  +10.6  93  +10  +10      978.0         
08:18 24.03 СЗ  800 м  туман  ?/?  +11.7  +10.6  93  +11  +11      978.0         
08:53 24.03 С  1 км  дымка  ?/?  +11.7  +10.6  93  +11  +11    1014.4  978.4         
09:53 24.03 С  2 км  дымка  10/10 90 м  +11.7  +10.6  93  +10  +10    1014.6  978.7         
10:37 24.03   3 км  дымка  10/10 90 м  +11.7  +10.6  93  +11  +11      978.7         
10:53 24.03   4 км  дымка  10/10 90 м  +11.7  +10.6  93  +11  +11    1014.8  978.7  +11.7  +11.7     
11:27 24.03 С  6 км  дымка  10/10 240 м  +11.7  +10.6  93  +11  +11      979.0         
11:53 24.03 С  6 км  дымка  10/10 180 м  +11.7  +10.6  93  +11  +11    1015.2  979.0         
12:06 24.03 С  6 км  дымка  10/10 180 м  +11.7  +10.6  93  +11  +11      979.0         
12:36 24.03   6 км  дымка  5/5 330 м  +12.2  +10.6  90  +12  +12      979.3         
12:53 24.03   8 км  дымка  ясно  +12.8  +10.6  86  +12  +13    1015.6  979.3         
13:53 24.03 С  16 км    ясно  +13.3  +8.3  72  +12  +13    1016.2  980.0         
14:53 24.03 СЗ  16 км    ясно  +15.0  +8.3  64  +14  +18    1016.3  980.3         
15:53 24.03 СЗ  16 км    ясно  +16.1  +7.8  58  +15  +20    1016.4  980.3         
16:53 24.03 СЗ  4
{8} 
16 км    ясно  +17.2  +7.8  54  +17  +24    1016.0  980.0  +11.7  +17.2     
17:53 24.03 З  4
{8} 
16 км    ясно  +17.2  +7.8  54  +17  +25    1016.0  980.0         
18:53 24.03 СЗ  16 км    ясно  +17.8  +7.2  50  +17  +22    1015.7  979.7         
19:53 24.03 СЗ  16 км    ясно  +18.9  +7.2  47  +19  +25    1015.5  979.7         
20:53 24.03 СЗ  16 км    ясно  +18.3  +7.2  48  +18  +21    1015.4  979.3         
21:53 24.03 СЗ  4
{9} 
16 км    ясно  +19.4  +7.2  45  +20  +24    1015.3  979.3         
22:53 24.03 С  16 км    ясно  +18.3  +7.2  48  +18  +19    1015.8  979.7  +16.7  +19.4     
23:53 24.03 С  16 км    ясно  +15.6  +7.2  57  +15  +15    1016.5  980.3         
00:53 25.03 С  16 км    ясно  +12.2  +6.7  69  +10  +10    1017.5  981.3         
01:53 25.03 С  16 км    ясно  +10.6  +6.1  74  +8  +8    1018.6  982.3         
02:53 25.03 С  16 км    ясно  +10.0  +6.1  77  +8  +8    1019.0  982.6         
03:53 25.03 С  16 км    ясно  +9.4  +6.1  80  +6  +6    1019.4  982.9         
04:53 25.03 С  16 км    ясно  +7.8  +5.6  86  +4  +4    1020.0  983.6  +7.8  +18.3     
05:53 25.03 С  16 км    ясно  +7.8  +5.6  86  +5  +5    1020.3  983.9         

 

Местоположение метеостанции Ponca City Municipal Airport: широта 36.7306 долгота -97.0997 высота над уровнем моря 307 м.

В архиве по умолчанию представлена погода в Понка-Сити за последние 1-2 суток. Обновление информации о фактической погоде в базе происходит ежечасно! Архивные данные за месяц целиком и за предыдущие месяцы Вы можете получить, выбрав интересующий диапазон дат из раскрывающегося списка и нажав кнопку "Ввод!".

Внимание! Архив погоды МЕТАР в базе сайта хранится не более 60 дней. Нет смысла пытаться выбрать более раннюю дату.

Внимание! Время в таблицах - всемирное. Для получения местного времени необходимо прибавить поправку, которая в Понка-Сити равна -6 ч.

Ветер - указаны скорость ветра в м/с и направление, откуда дует ветер: С - северный, СВ - северо-восточный, В - восточный, ЮВ - юго-восточный, Ю - южный, ЮЗ - юго-западный, З - западный, СЗ - северо-западный.
Видимость - горизонтальная дальность видимости в метрах или километрах. При видимости от 1 до 10 км при отсутствии осадков обычно наблюдается дымка, при ухудшении видимости до 1 км и менее - туман. В сухую погоду видимость может ухудшаться дымом, пылью или мглою.
Атмосферные явления - указаны явления, наблюдавшиеся в указанный момент времени.
Облачность - указаны через наклонную черту верхняя и нижняя облачность в баллах и высота нижней границы облаков в метрах. Внимание: облачность, как и прочие метеорологические величины в США измеряются автоматическими метеостанциями. Указанные значения в баллах носят условный характер и показывают процент времени, в течение которого, в среднем, лазерный луч высотомера отражался от облаков обратно.
T - Температура воздуха - температура, измеренная на высоте 2 м над землей.
Td - Температура точки росы - температура, при понижении до которой содержащийся в воздухе водяной пар достигнет насыщения.
f - Относительная влажность воздуха - влажноcть воздуха, измеренная на высоте 2 м над землей.
Te - Эффективная температура - температура, которую ощущает одетый по сезону человек в тени. Характеристика душности погоды. При расчете учитывается влияние влажности воздуха и скорости ветра на теплоощущения человека.
Tes - Эффективная температура на солнце - температура, которую ощущает человек, с поправкой на солнечный нагрев. Характеристика знойности погоды. Зависит от высоты солнца над горизонтом, облачности и скорости ветра. Ночью, в пасмурную погоду, а также при ветре 12 м/с и более поправка равна нулю.
P - Атмосферное давление - приведенное к уровню моря атмосферное давление.
Po - Атмосферное давление - измеренное на уровне метеостанции атмосферное давление.
Tmin - Минимальная температура - минимум температуры воздуха на высоте 2 м над землей.
Tmax - Максимальная температура - максимум температуры воздуха на высоте 2 м над землей.
R - Количество осадков - Количество выпавших осадков за 3 или 6 часов, мм.
SD - Снежный покров - Высота снежного покрова, см.